Location: Home
(42.5358°N, 72.7383°W)
Time: 15:46:19
(UTC-05:00)

N. Korean satellite - Pass Details

Date: 23 October 2021
Orbit: 446 x 495 km, 97.3° (Epoch: 07 December)

Event Time Altitude Azimuth Distance (km) Brightness Sun altitude
Rises 06:46:07 0° 1° (N) 2,595 10.2 -5.8°
Reaches altitude 10° 06:48:22 10° 351° (N) 1,705 9.1 -5.4°
Maximum altitude 06:51:36 30° 289° (WNW) 918 7.4 -4.8°
Drops below altitude 10° 06:54:47 10° 227° (SW) 1,679 9.0 -4.3°
Sets 06:57:00 0° 217° (SW) 2,549 10.0 -3.9°
